{"data":{"norad_id":57736,"epoch":"2026-09-20T10:41:06.169056Z","epoch_age_seconds":135822,"freshness":"FRESH","line1":"1 57736U 23131E   26263.44521029 -.00004990  00000+0 -17184-3 0  9991","line2":"2 57736  43.0004 160.0854 0000907 302.7140  57.3624 15.27600152169617","mean_motion":15.27600152,"eccentricity":9.07e-5,"inclination_deg":43.0004,"raan_deg":160.0854,"arg_perigee_deg":302.714,"mean_anomaly_deg":57.3624,"bstar":-0.00017184,"rev_number":16961,"period_min":94.265505152948,"perigee_km":482.36645025945,"apogee_km":483.61105847129,"semimajor_km":6861.1257543654,"source":"CELESTRAK","updated_at":"2026-09-21T09:00:33.678959Z"}}